[[{"header":{"parameterUnit":"m.s-1","parameterCategory":1,"la1":30.2991,"la2":30.254,"lo1":-89.0895,"lo2":-89.0444,"dy":0.0017,"dx":0.0017,"nx":28,"ny":28,"refTime":"2025-11-08T09:00:00:Z","depth":0,"parameterNumber":2,"parameterNumberName":"U-component_of_WINDS"},"data":[0,0,0,0,0,0,0,0,0,0,0,0,0,0,0,0,0,0,0,0,0,0,0,0,0,0,0,0,0,0,0,0,0,0,0,0,0,0,0,0,0,0,0,0,0,0,0,0,0,0,0,0,0,0,0,0,0,0,1.9394,1.9395,0,1.9402,1.9402,1.9402,1.9316,1.9314,1.9311,1.9309,1.9319,1.9322,1.9324,0,0,0,0,0,0,0,0,0,0,0,0,0,1.9308,1.931,1.9394,1.9395,1.9395,1.9402,1.9402,1.9402,1.9317,1.9314,1.9311,1.9308,1.9318,1.9321,1.9324,0,0,0,0,0,0,0,0,0,0,0,0,0,1.9333,1.931,1.9394,1.9353,1.9349,1.9402,1.9402,1.9402,1.9317,1.9314,1.931,1.9307,1.9317,1.9321,1.9325,1.9418,0,0,1.9336,1.9338,0,0,0,0,0,0,0,0,1.9332,1.9337,1.9359,1.9356,1.9352,1.9354,1.9375,1.9408,1.9318,1.9329,1.9309,1.9305,1.9334,1.9336,1.9345,1.9419,1.9419,1.9336,1.9339,1.934,1.9341,0,0,0,0,0,0,0,1.933,1.9336,1.9397,1.9359,1.9355,1.9334,1.9334,1.9381,1.9352,1.9328,1.9322,1.9324,1.9331,1.9342,1.9345,1.9419,1.9336,1.934,1.9342,1.9343,1.957,1.9574,0,0,0,0,0,0,1.9334,1.9335,1.9397,1.9398,1.9333,1.9339,1.9338,1.9357,1.9351,1.9346,1.9327,1.932,1.9337,1.9341,1.9345,1.9454,1.934,1.9344,1.9346,1.9566,1.9571,1.9575,0,0,0,0,0,0,1.9332,1.934,1.9397,1.9365,1.937,1.9344,1.9366,1.9359,1.937,1.935,1.9344,1.9343,1.9335,1.934,1.9401,1.9453,1.9345,1.9349,1.9562,1.9568,1.9573,1.9674,0,0,0,0,0,0,1.933,1.934,1.9375,1.9366,1.9372,1.9452,1.9369,1.9362,1.9376,1.9367,1.9363,1.936,1.9332,1.9395,1.9404,1.9456,1.9352,1.9557,1.9564,1.9571,1.9665,1.9682,1.9696,0,0,0,0,0,1.9328,1.9404,1.9378,1.9386,1.9415,1.9455,1.9459,1.9425,1.9381,1.9416,1.9403,1.936,1.9446,1.9402,1.9412,1.9466,1.9553,1.9562,1.9571,1.9659,1.9679,1.9696,0,0,0,0,0,0,1.9421,1.9402,1.9373,1.9448,1.9454,1.9441,1.9484,1.9448,1.9467,1.9458,1.9416,1.9416,1.9484,1.9481,1.9433,1.9556,1.9492,1.9503,1.9556,1.9575,1.959,1.959,1.9355,0,0,0,0,0,1.945,1.9484,1.9465,1.9534,1.9538,1.9511,1.9527,1.9501,1.9505,1.9508,1.9499,1.9506,1.9534,1.9554,1.9579,1.9664,1.9662,1.9706,1.9721,1.9734,1.9744,1.9789,1.9808,1.9603,1.9603,1.9603,0,0,1.9512,1.9505,1.9529,1.9553,1.9554,1.959,1.9514,1.9555,1.9582,1.9514,1.9571,1.9565,1.957,1.9643,1.9675,1.9642,1.98,1.9745,1.9755,1.9758,1.98,1.9819,1.9836,1.9609,1.9608,1.9607,0,0,1.9641,1.964,1.9697,1.9699,1.9702,1.9683,1.9697,1.9689,1.9683,1.9738,1.9688,1.972,1.977,1.9775,1.9784,1.9916,1.9877,1.9925,2.0006,2.005,2.0066,2.008,2.0127,2.0145,1.9935,1.9935,1.9936,0,1.9717,1.9769,1.9731,1.9775,1.9787,1.9727,1.9784,1.9789,1.98,1.981,1.9773,1.9834,1.9833,1.9907,1.9939,1.9949,1.9963,1.9926,2.0067,2.008,2.0093,2.0138,2.0156,1.9941,1.9941,1.994,1.994,0,1.9862,1.9899,1.9945,1.9956,1.9973,2.0024,1.9994,2.0016,1.9988,1.9973,2.0031,2.0027,2.0051,2.0066,2.004,2.0136,2.0116,2.0074,2.0009,2.0119,2.016,2.0177,1.995,1.9948,1.9946,1.9944,0,0,2.0052,2.0041,2.0058,2.0063,2.0061,2.0089,2.0137,2.0159,2.0179,2.0189,2.0229,2.0272,2.0232,2.0243,2.0217,2.0255,2.036,2.0208,2.0207,2.0237,2.0466,2.0499,2.0519,2.0334,2.0337,2.0339,2.0466,0,2.0178,2.026,2.0226,2.0311,2.0344,2.0287,2.0329,2.0333,2.0321,2.0348,2.0334,2.0365,2.0311,2.0317,2.0352,2.034,2.0406,2.033,2.0371,2.0373,2.0372,2.054,2.0575,2.0695,2.0482,2.0485,2.0486,0,2.0337,2.0352,2.044,2.0432,2.0445,2.0484,2.0501,2.0527,2.053,2.0519,2.053,2.0495,2.0542,2.0477,2.0542,2.0491,2.0506,2.0502,2.0506,2.0509,2.0437,2.0548,2.0732,2.075,2.0511,2.0509,2.0508,0,2.0467,2.051,2.0567,2.0573,2.0565,2.0594,2.0592,2.0591,2.0607,2.0622,2.0631,2.0653,2.0664,2.0682,2.0653,2.0608,2.0722,2.0654,2.0714,2.0715,2.0741,2.074,2.093,2.075,2.075,2.075,2.0749,0,2.0612,2.0668,2.0626,2.0662,2.0723,2.0684,2.0746,2.0737,2.0738,2.0771,2.0723,2.0756,2.0716,2.0745,2.0723,2.078,2.0785,2.0778,2.0771,2.0782,2.0783,2.0792,2.0783,2.0754,2.0753,2.0753,2.0752,0,2.0767,2.0741,2.0801,2.0788,2.0786,2.0832,2.0822,2.0854,2.0838,2.0881,2.0889,2.0864,2.0896,2.0869,2.0899,2.0884,2.0961,2.0942,2.0959,2.0954,2.1016,2.1011,2.1218,2.1244,2.1047,2.1049,2.1051,0,2.0862,2.0904,2.0895,2.0914,2.0915,2.0946,2.0961,2.0924,2.0942,2.0949,2.0981,2.1008,2.1028,2.1081,2.1066,2.1089,2.1071,2.1143,2.1075,2.1084,2.1073,2.1071,2.1075,2.1157,2.1159,2.1161,2.1162,0,2.1032,2.1017,2.1041,2.106,2.1079,2.1092,2.1102,2.112,2.1083,2.1105,2.1136,2.1152,2.1183,2.1211,2.1229,2.1227,2.1189,2.1184,2.1199,2.1211,2.1219,2.1216,2.0998,2.1179,2.1178,2.1176,2.1176,2.1175,2.116,2.1195,2.1194,2.1222,2.1225,2.1235,2.1265,2.1253,2.1278,2.13,2.1276,2.1315,2.1317,2.1337,2.134,2.137,2.134,2.1362,2.1368,2.1374,2.1383,2.1214,2.1373,2.1372,2.1372,2.1371,2.1371,0,2.1329,2.1325,2.1351,2.1366,2.1388,2.1349,2.1357,2.1378,2.1412,2.1417,2.1437,2.1474,2.15,2.1487,2.151,2.1537,2.152,2.1544,2.1542,2.1542,2.1408,2.1393,2.1557,2.1557,2.1557,2.1557,2.1557,2.1557,2.1419,2.1475,2.146,2.1517,2.1513,2.155,2.1558,2.1567,2.1571,2.1613,2.1635,2.1625,2.1623,2.1646,2.1669,2.1664,2.1675,2.1706,2.1696,2.157,2.1552,2.1534,2.152,2.1709,2.1709,2.1827,2.1829,2.1829]},{"header":{"parameterUnit":"m.s-1","parameterCategory":1,"la1":30.2991,"la2":30.254,"lo1":-89.0895,"lo2":-89.0444,"dy":0.0017,"dx":0.0017,"nx":28,"ny":28,"refTime":"2025-11-08T09:00:00:Z","depth":0,"parameterNumber":3,"parameterNumberName":"V-component_of_WINDS"},"data":[0,0,0,0,0,0,0,0,0,0,0,0,0,0,0,0,0,0,0,0,0,0,0,0,0,0,0,0,0,0,0,0,0,0,0,0,0,0,0,0,0,0,0,0,0,0,0,0,0,0,0,0,0,0,0,0,0,0,3.0716,3.0716,0,3.0789,3.079,3.0791,3.0768,3.0766,3.0765,3.0763,3.0834,3.0837,3.0841,0,0,0,0,0,0,0,0,0,0,0,0,0,3.0552,3.0555,3.0716,3.0716,3.0717,3.0789,3.079,3.0791,3.0768,3.0766,3.0764,3.0763,3.0833,3.0837,3.0841,0,0,0,0,0,0,0,0,0,0,0,0,0,3.0624,3.0556,3.0715,3.0715,3.0716,3.0789,3.079,3.0791,3.0769,3.0766,3.0764,3.0762,3.0832,3.0837,3.0841,3.0918,0,0,3.0857,3.0859,0,0,0,0,0,0,0,0,3.062,3.063,3.0714,3.0715,3.0716,3.0767,3.0758,3.0833,3.0769,3.0748,3.0763,3.0761,3.0813,3.082,3.0838,3.0921,3.0924,3.0857,3.086,3.0862,3.0864,0,0,0,0,0,0,0,3.0615,3.0627,3.0744,3.0715,3.0716,3.071,3.0717,3.0772,3.0793,3.075,3.0748,3.0758,3.0813,3.0834,3.084,3.0925,3.0857,3.0861,3.0864,3.0866,3.1075,3.1078,0,0,0,0,0,0,3.061,3.0623,3.0742,3.0747,3.0661,3.0714,3.0723,3.0753,3.0792,3.0796,3.076,3.0756,3.0826,3.0834,3.0842,3.0935,3.0862,3.0867,3.087,3.1073,3.1076,3.1078,0,0,0,0,0,0,3.0606,3.0621,3.0739,3.0684,3.0699,3.072,3.0753,3.0755,3.0776,3.0799,3.0802,3.0777,3.0825,3.0835,3.09,3.0937,3.0869,3.0874,3.107,3.1074,3.1077,3.1121,0,0,0,0,0,0,3.0602,3.062,3.065,3.0685,3.0702,3.0797,3.0756,3.0759,3.0785,3.0781,3.0816,3.082,3.0824,3.0892,3.0905,3.0943,3.0877,3.1066,3.1071,3.1076,3.1116,3.1126,3.1134,0,0,0,0,0,3.0596,3.0658,3.0652,3.0666,3.074,3.0799,3.0808,3.0813,3.0788,3.0818,3.0833,3.0819,3.0931,3.0899,3.0913,3.0953,3.1064,3.107,3.1075,3.1112,3.1124,3.1134,0,0,0,0,0,0,3.0625,3.0663,3.0656,3.0732,3.0763,3.0795,3.0833,3.0825,3.0862,3.0857,3.086,3.0868,3.0934,3.095,3.0914,3.1029,3.0994,3.1002,3.1017,3.1028,3.1037,3.1032,3.0882,0,0,0,0,0,3.0641,3.0687,3.0716,3.078,3.0796,3.0812,3.0838,3.0839,3.087,3.0883,3.0902,3.0932,3.0974,3.1002,3.1042,3.1118,3.1125,3.1152,3.1161,3.1168,3.1176,3.1218,3.123,3.1097,3.1097,3.1097,0,0,3.0672,3.0699,3.0727,3.0787,3.0811,3.0857,3.0823,3.0873,3.0908,3.089,3.0953,3.0968,3.1002,3.1073,3.1105,3.1088,3.1214,3.1176,3.1181,3.1185,3.1225,3.1237,3.1249,3.1101,3.1101,3.11,0,0,3.0755,3.0779,3.0836,3.0861,3.0898,3.0909,3.0922,3.0956,3.0967,3.103,3.1018,3.1057,3.113,3.1154,3.1176,3.1268,3.1256,3.1281,3.1327,3.1368,3.1379,3.1388,3.1421,3.1433,3.1288,3.1288,3.1289,0,3.0789,3.086,3.0865,3.0917,3.0944,3.0931,3.0988,3.1011,3.1059,3.1077,3.1057,3.1148,3.117,3.1247,3.1269,3.1287,3.1302,3.1277,3.1377,3.1386,3.1395,3.1427,3.1439,3.1291,3.1291,3.1291,3.129,0,3.0901,3.095,3.0991,3.104,3.107,3.1124,3.1136,3.1167,3.1165,3.1177,3.1241,3.1267,3.1312,3.133,3.1328,3.1407,3.1395,3.1376,3.134,3.141,3.144,3.1452,3.1295,3.1294,3.1293,3.1293,0,0,3.1003,3.1055,3.107,3.1092,3.1133,3.117,3.1223,3.1269,3.1295,3.1328,3.1372,3.1434,3.1417,3.1442,3.1443,3.1478,3.155,3.1455,3.1456,3.1472,3.1639,3.1653,3.1667,3.1542,3.1545,3.1547,3.1636,0,3.1089,3.1185,3.1191,3.1276,3.1322,3.1311,3.1357,3.1386,3.1399,3.1438,3.1451,3.1495,3.1469,3.1484,3.1519,3.1534,3.1584,3.1528,3.1583,3.1585,3.1576,3.1683,3.1698,3.1781,3.1648,3.165,3.1651,0,3.1203,3.1242,3.1332,3.1367,3.1386,3.1428,3.1471,3.1509,3.1541,3.1548,3.1576,3.1572,3.1625,3.1588,3.1661,3.1622,3.1645,3.1656,3.1659,3.1665,3.1623,3.1692,3.1808,3.1821,3.1669,3.1668,3.1667,0,3.1269,3.1344,3.1408,3.1427,3.1469,3.1499,3.1517,3.1548,3.1575,3.1612,3.163,3.1671,3.1694,3.1726,3.1733,3.1705,3.1806,3.1769,3.1812,3.1812,3.1835,3.1833,3.1957,3.1848,3.1848,3.1848,3.1848,0,3.1365,3.1421,3.1439,3.1478,3.154,3.1546,3.1607,3.1623,3.1651,3.1692,3.1684,3.1723,3.173,3.177,3.1775,3.1835,3.1845,3.1851,3.1852,3.1852,3.1852,3.1868,3.1862,3.1851,3.1851,3.185,3.1849,0,3.1449,3.1464,3.1533,3.1568,3.1578,3.1622,3.1651,3.1689,3.17,3.1753,3.1766,3.1784,3.1831,3.1841,3.1896,3.1899,3.1971,3.1965,3.196,3.196,3.2003,3.1999,3.2142,3.2161,3.204,3.2041,3.2042,0,3.151,3.1553,3.1593,3.1621,3.1642,3.1687,3.1716,3.1723,3.1752,3.1793,3.1825,3.1872,3.1909,3.1984,3.2002,3.2044,3.2039,3.2087,3.2046,3.2045,3.2041,3.2039,3.2043,3.2094,3.2096,3.2097,3.2098,0,3.1616,3.1621,3.1663,3.1708,3.1743,3.1778,3.1811,3.1834,3.1846,3.1879,3.1928,3.1957,3.2014,3.206,3.2103,3.212,3.2111,3.211,3.2123,3.2124,3.212,3.2123,3.1982,3.2107,3.2106,3.2106,3.2105,3.2105,3.1691,3.1729,3.1763,3.1811,3.1837,3.1869,3.1906,3.1923,3.1965,3.2013,3.2014,3.2067,3.2098,3.2154,3.2175,3.2216,3.2201,3.2218,3.2223,3.2228,3.2232,3.2113,3.2223,3.2223,3.2223,3.2222,3.2222,0,3.1797,3.1819,3.1862,3.191,3.1947,3.1937,3.1974,3.2005,3.2052,3.2083,3.2121,3.2177,3.2222,3.2243,3.2287,3.2315,3.2312,3.2327,3.2325,3.2329,3.2242,3.2228,3.2328,3.2328,3.2328,3.2328,3.2328,3.2328,3.1856,3.1921,3.193,3.2007,3.2028,3.2082,3.2104,3.2133,3.2157,3.2221,3.2259,3.2273,3.23,3.2346,3.2386,3.2391,3.2407,3.2424,3.2427,3.2346,3.2335,3.2325,3.2311,3.2427,3.2428,3.251,3.2511,3.2511]}]]